Petersburg, AK

6:17 AM AKDT on August 29, 2016 (GMT -0800)
Johnson Petersburg

Weather History for PAPG - November, 2012

Change the Weather History Date:

Tuesday, November 27, 2012

  Actual Average Record
Temperature  
Mean Temperature 32 °F -  
Max Temperature 33 °F 36 °F 55 °F (2002)
Min Temperature 30 °F 29 °F -4 °F (1985)
Degree Days  
Heating Degree Days 34    
Moisture  
Dew Point 28 °F    
Average Humidity 88    
Maximum Humidity 93    
Minimum Humidity 75    
Precipitation  
Precipitation 0.00 in - - ()
Sea Level Pressure  
Sea Level Pressure 29.97 in    
Wind  
Wind Speed 2 mph (South)    
Max Wind Speed 6 mph    
Max Gust Speed -    
Visibility 10 miles    
Events      
Averages and records for this station are not official NWS values.
T = Trace of Precipitation, MM = Missing Value Source: NWS Daily Summary

Daily Weather History Graph

Daily Weather History Graph

Search for Another Location

Airport or City:

Trip Planner

Search our weather history database for the weather conditions in past years. The results will help you decide how hot, cold, wet, or windy it might be!

Date:

Astronomy

Nov. 27, 2012 Rise Set
Actual Time 7:57 AM AKST 3:21 PM AKST
Civil Twilight 7:11 AM AKST 4:07 PM AKST
Nautical Twilight 6:22 AM AKST 4:56 PM AKST
Astronomical Twilight 5:37 AM AKST 5:41 PM AKST
Moon 3:00 PM AKST (11/27) 7:05 AM AKST (11/27)
Length of Visible Light 8h 55m
Length of Day
7h 23m
Full, 100% of the Moon is Illuminated
Nov 27
Full
Nov 28
Full
Dec 6
Last Quarter
Dec 12
New
Dec 19
First Quarter

Hourly Weather History & Observations

Time (AKST) Temp. Windchill Dew Point Humidity Pressure Visibility Wind Dir Wind Speed Gust Speed Precip Events Conditions
12:16 AM 32.0 °F 27.5 °F 30.2 °F 93% 30.13 in 10.0 mi SE 4.6 mph - N/A   Overcast
12:36 AM 32.0 °F 27.5 °F 30.2 °F 93% 30.12 in 10.0 mi ESE 4.6 mph - N/A   Overcast
12:56 AM 32.0 °F 27.5 °F 30.2 °F 93% 30.12 in 10.0 mi ESE 4.6 mph - N/A   Overcast
1:16 AM 33.8 °F 30.8 °F 30.2 °F 87% 30.11 in 10.0 mi ESE 3.5 mph - N/A   Overcast
1:36 AM 32.0 °F - 30.2 °F 93% 30.11 in 6.0 mi Calm Calm - N/A   Overcast
1:56 AM 32.0 °F - 30.2 °F 93% 30.10 in 5.0 mi Calm Calm - N/A   Overcast
2:16 AM 32.0 °F - 28.4 °F 87% 30.10 in 10.0 mi Calm Calm - N/A   Overcast
2:36 AM 32.0 °F 28.7 °F 30.2 °F 93% 30.09 in 8.0 mi East 3.5 mph - N/A   Overcast
3:16 AM 32.0 °F 27.5 °F 30.2 °F 93% 30.08 in 10.0 mi ENE 4.6 mph - N/A   Overcast
3:36 AM 32.0 °F 28.7 °F 28.4 °F 87% 30.07 in 10.0 mi East 3.5 mph - N/A   Overcast
3:56 AM 32.0 °F 26.4 °F 30.2 °F 93% 30.06 in 10.0 mi ENE 5.8 mph - N/A   Overcast
4:16 AM 32.0 °F - 30.2 °F 93% 30.06 in 10.0 mi Calm Calm - N/A   Overcast
4:36 AM 32.0 °F - 28.4 °F 87% 30.05 in 10.0 mi Calm Calm - N/A   Overcast
4:56 AM 32.0 °F - 30.2 °F 93% 30.05 in 10.0 mi Calm Calm - N/A   Overcast
5:16 AM 32.0 °F 27.5 °F 28.4 °F 87% 30.04 in 10.0 mi ESE 4.6 mph - N/A   Overcast
5:36 AM 32.0 °F 28.7 °F 30.2 °F 93% 30.04 in 9.0 mi East 3.5 mph - N/A   Overcast
5:56 AM 32.0 °F - 28.4 °F 87% 30.04 in 4.0 mi Calm Calm - N/A   Mostly Cloudy
6:16 AM 32.0 °F - 28.4 °F 87% 30.03 in 4.0 mi Calm Calm - N/A   Mostly Cloudy
6:56 AM 30.2 °F - 28.4 °F 93% 30.02 in 5.0 mi Calm Calm - N/A   Overcast
7:36 AM 30.2 °F - 28.4 °F 93% 30.01 in 5.0 mi Calm Calm - N/A   Overcast
7:56 AM 30.2 °F - 28.4 °F 93% 30.01 in 10.0 mi Calm Calm - N/A   Mostly Cloudy
8:16 AM 30.2 °F - 26.6 °F 86% 30.00 in 10.0 mi Calm Calm - N/A   Mostly Cloudy
8:36 AM 30.2 °F - 26.6 °F 86% 30.00 in 10.0 mi Calm Calm - N/A   Mostly Cloudy
8:56 AM 30.2 °F - 28.4 °F 93% 30.00 in 10.0 mi Calm Calm - N/A   Mostly Cloudy
9:16 AM 30.2 °F 26.7 °F 28.4 °F 93% 30.00 in 10.0 mi SW 3.5 mph - N/A   Mostly Cloudy
9:36 AM 30.2 °F - 28.4 °F 93% 30.00 in 10.0 mi Calm Calm - N/A   Mostly Cloudy
9:56 AM 30.2 °F - 28.4 °F 93% 30.00 in 10.0 mi Calm Calm - N/A   Overcast
10:16 AM 32.0 °F - 28.4 °F 87% 30.00 in 10.0 mi Calm Calm - N/A   Overcast
10:36 AM 32.0 °F - 28.4 °F 87% 30.00 in 10.0 mi Calm Calm - N/A   Overcast
10:56 AM 32.0 °F - 28.4 °F 87% 29.99 in 10.0 mi Calm Calm - N/A   Overcast
11:16 AM 32.0 °F - 28.4 °F 87% 29.99 in 10.0 mi Calm Calm - N/A   Overcast
11:36 AM 32.0 °F - 26.6 °F 80% 29.98 in 10.0 mi Calm Calm - N/A   Overcast
11:56 AM 32.0 °F 26.4 °F 26.6 °F 80% 29.97 in 10.0 mi North 5.8 mph - N/A   Overcast
12:16 PM 32.0 °F 28.7 °F 28.4 °F 87% 29.97 in 10.0 mi ENE 3.5 mph - N/A   Overcast
12:36 PM 33.8 °F - 28.4 °F 81% 29.96 in 10.0 mi Calm Calm - N/A   Overcast
12:56 PM 33.8 °F - 26.6 °F 75% 29.95 in 10.0 mi Calm Calm - N/A   Overcast
1:16 PM 33.8 °F 30.8 °F 26.6 °F 75% 29.94 in 10.0 mi NNE 3.5 mph - N/A   Overcast
1:36 PM 33.8 °F - 28.4 °F 81% 29.94 in 10.0 mi Calm Calm - N/A   Overcast
1:56 PM 33.8 °F 29.6 °F 28.4 °F 81% 29.93 in 10.0 mi West 4.6 mph - N/A   Overcast
2:16 PM 32.0 °F - 28.4 °F 87% 29.93 in 10.0 mi Calm Calm - N/A   Overcast
2:36 PM 32.0 °F 28.7 °F 28.4 °F 87% 29.92 in 10.0 mi SW 3.5 mph - N/A   Overcast
2:56 PM 32.0 °F - 26.6 °F 80% 29.92 in 10.0 mi Calm Calm - N/A   Partly Cloudy
3:16 PM 32.0 °F 26.4 °F 26.6 °F 80% 29.92 in 10.0 mi SW 5.8 mph - N/A   Partly Cloudy
3:36 PM 32.0 °F - 26.6 °F 80% 29.91 in 10.0 mi Calm Calm - N/A   Partly Cloudy
3:56 PM 30.2 °F 26.7 °F 28.4 °F 93% 29.91 in 10.0 mi SSW 3.5 mph - N/A   Partly Cloudy
4:16 PM 30.2 °F 26.7 °F 28.4 °F 93% 29.91 in 10.0 mi SSW 3.5 mph - N/A   Partly Cloudy
4:36 PM 30.2 °F - 28.4 °F 93% 29.90 in 10.0 mi Calm Calm - N/A   Partly Cloudy
4:56 PM 30.2 °F - 28.4 °F 93% 29.90 in 10.0 mi Calm Calm - N/A   Overcast
5:16 PM 30.2 °F 25.4 °F 28.4 °F 93% 29.89 in 10.0 mi SSW 4.6 mph - N/A   Overcast
5:36 PM 30.2 °F - 28.4 °F 93% 29.89 in 10.0 mi Calm Calm - N/A   Overcast
5:56 PM 30.2 °F - 28.4 °F 93% 29.88 in 10.0 mi Calm Calm - N/A   Overcast
6:16 PM 30.2 °F - 28.4 °F 93% 29.88 in 10.0 mi Calm Calm - N/A   Overcast
6:36 PM 30.2 °F - 28.4 °F 93% 29.87 in 10.0 mi Calm Calm - N/A   Overcast
6:56 PM 30.2 °F - 28.4 °F 93% 29.87 in 10.0 mi Calm Calm - N/A   Overcast
7:16 PM 30.2 °F 26.7 °F 28.4 °F 93% 29.87 in 10.0 mi SSW 3.5 mph - N/A   Overcast
7:56 PM 32.0 °F 27.5 °F 28.4 °F 87% 29.88 in 10.0 mi SW 4.6 mph - N/A   Overcast
8:16 PM 32.0 °F 27.5 °F 28.4 °F 87% 29.87 in 10.0 mi SW 4.6 mph - N/A   Overcast
8:36 PM 32.0 °F 27.5 °F 28.4 °F 87% 29.87 in 10.0 mi SW 4.6 mph - N/A   Unknown
8:56 PM 32.0 °F 27.5 °F 26.6 °F 80% 29.87 in 10.0 mi SW 4.6 mph - N/A   Overcast
9:16 PM 32.0 °F 28.7 °F 28.4 °F 87% 29.87 in 10.0 mi WSW 3.5 mph - N/A   Overcast
9:36 PM 32.0 °F - 28.4 °F 87% 29.88 in 10.0 mi Calm Calm - N/A   Overcast
9:56 PM 32.0 °F - 28.4 °F 87% 29.87 in 10.0 mi Calm Calm - N/A   Overcast
10:16 PM 32.0 °F - 28.4 °F 87% 29.87 in 10.0 mi Calm Calm - N/A   Overcast
10:36 PM 32.0 °F - 28.4 °F 87% 29.88 in 10.0 mi Calm Calm - N/A   Overcast
10:56 PM 32.0 °F 28.7 °F 28.4 °F 87% 29.87 in 10.0 mi SW 3.5 mph - N/A   Overcast
11:16 PM 33.8 °F - 28.4 °F 81% 29.87 in 10.0 mi Calm Calm - N/A   Overcast
11:36 PM 32.0 °F 28.7 °F 28.4 °F 87% 29.87 in 10.0 mi SSW 3.5 mph - N/A   Overcast
11:56 PM 33.8 °F - 28.4 °F 81% 29.87 in 10.0 mi Calm Calm - N/A   Overcast